Latest Weather Observations for Bankstown

IDN60801

Issued at 2:33 pm EST Friday 30 September 2016 (issued every 30 minutes, with the page automatically refreshed every 10 minutes)

About weather observations | Map of weather stations | Latest weather observations for NSW | Other Formats
Station Details ID: 066137 Name: BANKSTOWN AIRPORT AWS Lat: -33.92 Lon: 150.99 Height: 6.5 m
Data from the previous 72 hours. | See also: Recent months at Bankstown
Date/Time
EST
Temp
°C
App
Temp
°C
Dew
Point
°C
Rel
Hum
%
Delta-T
°C
Wind Press
QNH
hPa
Press
MSL
hPa
Rain since
9am
mm
Dir  Spd
km/h
Gust
km/h
Spd
kts
Gust
kts
30/02:30pm 16.1 8.2 4.2 45 5.6 NNW 35 54 19 29 998.0 998.0 0.0
30/02:16pm 17.2 10.0 6.1 48 5.5 NNW 33 52 18 28 998.1 998.1 0.0
30/02:00pm 17.1 9.0 5.4 46 5.7 NNW 37 50 20 27 997.9 997.9 0.0
30/01:32pm 16.2 8.8 5.2 48 5.2 NNW 33 52 18 28 998.1 998.1 0.0
30/01:30pm 16.8 9.6 6.0 49 5.3 NNW 33 48 18 26 998.2 998.2 0.0
30/01:17pm 17.4 10.3 5.4 45 5.8 NNW 32 50 17 27 998.0 998.0 0.0
30/01:00pm 16.9 9.1 4.9 45 5.7 NNW 35 50 19 27 998.1 998.1 0.0
30/12:30pm 18.4 11.5 6.3 45 6.0 NW 32 50 17 27 998.2 998.2 0.0
30/12:02pm 17.7 11.3 5.0 43 6.1 NNW 28 48 15 26 998.3 998.3 0.0
30/12:00pm 17.7 11.4 5.9 46 5.8 NW 28 41 15 22 998.4 998.4 0.0
30/11:30am 16.8 10.3 4.8 45 5.7 NW 28 46 15 25 998.5 998.5 0.0
30/11:00am 17.1 10.2 4.8 44 5.9 NW 30 48 16 26 998.5 998.5 0.0
30/10:50am 17.0 10.5 4.7 44 5.8 NW 28 48 15 26 998.4 998.4 0.0
30/10:30am 17.2 11.0 4.5 43 6.0 NW 26 41 14 22 998.4 998.4 0.0
30/10:00am 16.9 9.5 3.9 42 6.1 NNW 32 44 17 24 998.4 998.4 0.0
30/09:30am 17.0 10.7 4.0 42 6.1 NNW 26 43 14 23 998.4 998.4 0.0
30/09:00am 16.2 11.4 4.6 46 5.5 NNW 19 37 10 20 998.8 998.8 0.4
30/08:30am 15.6 10.0 3.4 44 5.6 NW 22 32 12 17 998.7 998.7 0.4
30/08:00am 15.8 10.3 3.9 45 5.5 N 22 30 12 16 998.8 998.8 0.4
30/07:30am 14.9 9.9 3.7 47 5.1 N 19 28 10 15 998.9 998.9 0.4
30/07:00am 14.1 10.0 4.1 51 4.6 N 15 24 8 13 998.7 998.7 0.4
30/06:30am 13.1 8.8 3.5 52 4.3 N 15 20 8 11 998.4 998.4 0.4
30/06:00am 12.5 8.6 3.2 53 4.1 N 13 20 7 11 998.0 998.0 0.4
30/05:30am 12.0 8.8 3.0 54 3.9 N 9 15 5 8 997.8 997.8 0.4
30/05:00am 12.2 8.2 2.6 52 4.2 NNW 13 20 7 11 997.5 997.5 0.4
30/04:30am 12.3 8.0 3.0 53 4.1 NNW 15 20 8 11 997.4 997.4 0.4
30/04:00am 12.7 7.6 2.8 51 4.4 NNW 19 24 10 13 997.7 997.7 0.4
30/03:30am 12.7 7.9 2.6 50 4.4 NNW 17 24 9 13 997.8 997.8 0.4
30/03:00am 12.9 8.5 2.5 49 4.6 NNW 15 30 8 16 997.8 997.8 0.4
30/02:30am 12.8 8.4 2.9 51 4.4 NNW 15 24 8 13 998.0 998.0 0.4
30/02:00am 12.4 8.2 3.6 55 4.0 NNW 15 17 8 9 998.2 998.2 0.4
30/01:30am 12.4 7.5 3.9 56 3.8 NNW 19 22 10 12 998.7 998.7 0.4
30/01:00am 12.7 8.1 3.9 55 4.0 N 17 20 9 11 999.4 999.4 0.4
30/12:30am 13.0 9.0 3.1 51 4.4 N 13 19 7 10 999.6 999.6 0.4
30/12:00am 13.4 9.1 3.5 51 4.5 NNW 15 22 8 12 999.5 999.5 0.4
 
Date/Time
EST
Temp
°C
App
Temp
°C
Dew
Point
°C
Rel
Hum
%
Delta-T
°C
Wind Press
QNH
hPa
Press
MSL
hPa
Rain since
9am
mm
Dir  Spd
km/h
Gust
km/h
Spd
kts
Gust
kts
29/11:30pm 13.7 9.7 2.9 48 4.8 NNW 13 22 7 12 999.3 999.3 0.4
29/11:00pm 14.7 9.0 2.6 44 5.4 NNW 22 30 12 16 998.9 998.9 0.4
29/10:30pm 15.1 9.0 2.6 43 5.6 NW 24 37 13 20 998.5 998.5 0.4
29/10:00pm 15.6 10.2 2.7 42 5.8 NW 20 32 11 17 998.5 998.5 0.4
29/09:35pm 16.0 7.9 3.1 42 5.9 WNW 35 56 19 30 998.6 998.6 0.4
29/09:30pm 16.5 8.8 2.5 39 6.3 WNW 32 46 17 25 998.6 998.6 0.4
29/09:25pm 16.0 10.8 3.4 43 5.8 WNW 20 41 11 22 998.5 998.5 0.4
29/09:00pm 14.9 11.2 4.6 50 4.8 WNW 13 17 7 9 997.8 997.8 0.4
29/08:30pm 15.8 11.6 3.6 44 5.6 NW 15 20 8 11 997.4 997.4 0.4
29/08:00pm 16.4 11.5 4.1 44 5.8 NW 19 24 10 13 997.3 997.3 0.4
29/07:30pm 16.1 11.7 4.8 47 5.3 NW 17 22 9 12 997.0 997.0 0.4
29/07:00pm 16.3 12.6 4.7 46 5.5 NNW 13 17 7 9 996.6 996.6 0.4
29/06:30pm 16.7 12.9 4.1 43 5.9 WNW 13 19 7 10 996.0 996.0 0.4
29/06:00pm 18.1 13.1 3.6 38 6.8 NW 19 28 10 15 995.4 995.4 0.4
29/05:30pm 19.8 12.9 2.6 32 8.0 NW 28 41 15 22 995.0 995.0 0.4
29/05:00pm 20.4 13.7 3.6 33 8.1 WNW 28 39 15 21 994.7 994.7 0.4
29/04:30pm 21.8 14.3 1.5 26 9.4 NW 30 43 16 23 993.8 993.8 0.4
29/04:03pm 22.1 14.6 3.3 29 9.0 NW 32 50 17 27 993.5 993.5 0.4
29/04:00pm 22.1 14.0 3.3 29 9.1 NW 35 50 19 27 993.5 993.5 0.4
29/03:48pm 22.3 14.9 3.9 30 8.9 NW 32 50 17 27 993.4 993.4 0.4
29/03:30pm 21.9 18.7 11.9 53 5.6 NNW 20 33 11 18 993.1 993.1 0.4
29/03:00pm 21.4 18.6 13.3 60 4.7 NNW 20 30 11 16 993.2 993.2 0.4
29/02:30pm 20.9 18.6 14.1 65 3.9 NNW 19 24 10 13 994.7 994.7 0.4
29/02:00pm 19.9 16.4 13.4 66 3.7 NNW 24 35 13 19 994.6 994.6 0.4
29/01:30pm 20.7 17.9 14.4 67 3.7 NNW 22 33 12 18 994.8 994.8 0.4
29/01:00pm 18.2 16.4 13.3 73 2.8 NNE 15 22 8 12 995.4 995.4 0.4
29/12:30pm 18.1 15.1 12.1 68 3.3 NNE 19 28 10 15 996.5 996.5 0.4
29/12:00pm 17.0 16.0 12.3 74 2.6 NNE 9 17 5 9 997.2 997.2 0.4
29/11:30am 16.0 15.4 12.4 79 2.0 NNE 7 13 4 7 997.8 997.8 0.4
29/11:00am 14.7 14.1 12.4 86 1.3 E 7 13 4 7 998.7 998.7 0.4
29/10:30am 12.7 13.1 11.3 91 0.7 CALM 0 0 0 0 999.3 999.3 0.4
29/10:00am 12.2 12.1 10.9 92 0.7 SW 2 7 1 4 1000.0 1000.0 0.4
29/09:30am 11.7 11.2 10.6 93 0.6 SSW 4 6 2 3 1000.3 1000.3 0.2
29/09:00am 11.6 11.0 10.3 92 0.7 SW 4 9 2 5 1000.9 1000.9 2.4
29/08:30am 11.2 10.8 9.8 91 0.7 NNW 2 6 1 3 1001.3 1001.3 2.0
29/08:00am 11.0 9.2 9.6 91 0.7 WNW 9 11 5 6 1001.9 1001.9 1.6
29/07:30am 11.2 9.3 9.1 87 1.0 ESE 9 13 5 7 1001.5 1001.5 0.4
29/07:00am 11.0 10.0 8.9 87 1.0 NW 4 7 2 4 1002.3 1002.3 0.0
29/06:30am 10.6 9.8 8.2 85 1.2 WSW 2 7 1 4 1002.3 1002.3 0.0
29/06:00am 10.5 9.6 7.7 83 1.4 W 2 7 1 4 1002.8 1002.8 0.0
29/05:30am 10.0 9.1 7.6 85 1.1 W 2 7 1 4 1003.5 1003.5 0.0
29/05:00am 9.4 8.8 7.3 87 1.0 CALM 0 0 0 0 1003.4 1003.4 0.0
29/04:30am 9.2 8.6 7.5 89 0.8 CALM 0 0 0 0 1003.3 1003.3 0.0
29/04:00am 9.3 8.7 7.3 87 0.9 CALM 0 2 0 1 1003.8 1003.8 0.0
29/03:30am 9.0 7.2 7.3 89 0.8 W 6 6 3 3 1004.3 1004.3 0.0
29/03:00am 9.0 7.5 6.6 85 1.1 WNW 4 7 2 4 1005.2 1005.2 0.0
29/02:30am 8.2 6.9 5.8 85 1.1 NNW 2 9 1 5 1006.0 1006.0 0.0
29/02:00am 9.4 8.6 6.3 81 1.4 CALM 0 0 0 0 1006.6 1006.6 0.0
29/01:30am 9.2 8.5 6.8 85 1.1 CALM 0 0 0 0 1007.5 1007.5 0.0
29/01:00am 9.4 8.3 7.0 85 1.1 NNW 2 6 1 3 1007.8 1007.8 0.0
29/12:30am 9.2 8.4 6.6 84 1.2 CALM 0 0 0 0 1008.1 1008.1 0.0
29/12:00am 9.9 9.2 6.8 81 1.5 CALM 0 0 0 0 1008.5 1008.5 0.0
 
Date/Time
EST
Temp
°C
App
Temp
°C
Dew
Point
°C
Rel
Hum
%
Delta-T
°C
Wind Press
QNH
hPa
Press
MSL
hPa
Rain since
9am
mm
Dir  Spd
km/h
Gust
km/h
Spd
kts
Gust
kts
28/11:30pm 10.3 9.5 6.6 78 1.7 CALM 0 0 0 0 1009.0 1009.0 0.0
28/11:00pm 10.6 10.0 7.3 80 1.6 CALM 0 0 0 0 1009.6 1009.6 0.0
28/10:30pm 10.6 10.1 7.8 83 1.4 CALM 0 0 0 0 1009.9 1009.9 0.0
28/10:00pm 10.9 10.3 7.6 80 1.6 CALM 0 0 0 0 1010.0 1010.0 0.0
28/09:30pm 11.4 10.8 7.3 76 2.0 CALM 0 0 0 0 1010.3 1010.3 0.0
28/09:00pm 11.8 11.1 6.9 72 2.3 CALM 0 0 0 0 1010.5 1010.5 0.0
28/08:30pm 13.0 11.0 6.4 64 3.1 N 6 6 3 3 1010.5 1010.5 0.0
28/08:00pm 15.5 13.4 6.0 53 4.6 NNE 6 9 3 5 1010.6 1010.6 0.0
28/07:30pm 16.2 14.2 6.1 51 4.9 NNE 6 9 3 5 1010.4 1010.4 0.0
28/07:00pm 16.6 14.0 5.9 49 5.2 NE 9 13 5 7 1010.3 1010.3 0.0
28/06:30pm 17.1 14.3 5.1 45 5.7 NE 9 19 5 10 1010.2 1010.2 0.0
28/06:00pm 17.7 13.6 4.6 42 6.2 NE 15 22 8 12 1010.1 1010.1 0.0
28/05:30pm 18.1 14.2 5.3 43 6.2 ENE 15 20 8 11 1010.1 1010.1 0.0
28/05:00pm 18.7 13.9 5.5 42 6.4 E 20 28 11 15 1010.0 1010.0 0.0
28/04:30pm 18.9 14.4 6.1 43 6.3 E 19 30 10 16 1010.0 1010.0 0.0
28/04:00pm 18.9 13.5 6.4 44 6.2 ESE 24 33 13 18 1010.3 1010.3 0.0
28/03:30pm 19.4 15.1 6.8 44 6.3 E 19 28 10 15 1010.5 1010.5 0.0
28/03:00pm 19.5 15.6 6.9 44 6.4 ESE 17 28 9 15 1010.8 1010.8 0.0
28/02:30pm 19.6 15.5 6.0 41 6.7 ESE 17 24 9 13 1011.1 1011.1 0.0
28/02:00pm 20.0 16.0 4.9 37 7.4 ESE 15 22 8 12 1011.4 1011.4 0.0
28/01:30pm 19.7 16.1 5.0 38 7.2 ESE 13 26 7 14 1011.9 1011.9 0.0
28/01:00pm 20.1 17.0 5.4 38 7.2 E 11 20 6 11 1012.6 1012.6 0.0
28/12:30pm 19.8 17.5 5.5 39 7.0 NW 7 13 4 7 1012.8 1012.8 0.0
28/12:00pm 19.5 16.6 2.8 33 7.8 NE 7 13 4 7 1013.1 1013.1 0.0
28/11:30am 18.2 14.9 2.5 35 7.2 N 9 15 5 8 1013.4 1013.4 0.0
28/11:00am 18.5 15.8 3.6 37 7.0 WNW 7 13 4 7 1013.6 1013.6 0.0
28/10:30am 18.3 15.8 4.8 41 6.5 SW 7 11 4 6 1013.9 1013.9 0.0
28/10:00am 17.5 16.0 5.1 44 5.9 WSW 2 9 1 5 1014.3 1014.3 0.0
28/09:30am 16.7 13.9 5.3 47 5.5 WSW 9 13 5 7 1014.6 1014.6 0.0
28/09:00am 15.6 12.0 5.2 50 4.9 WSW 13 20 7 11 1014.8 1014.8 0.0
28/08:30am 14.6 10.6 5.1 53 4.5 SW 15 20 8 11 1014.8 1014.8 0.0
28/08:00am 13.6 10.4 5.3 57 3.9 WSW 11 15 6 8 1014.9 1014.9 0.0
28/07:30am 12.3 9.1 5.2 62 3.3 W 11 13 6 7 1015.0 1015.0 0.0
28/07:00am 10.7 8.1 5.9 72 2.2 WNW 9 15 5 8 1015.0 1015.0 0.0
28/06:30am 8.8 7.7 5.2 78 1.6 CALM 0 4 0 2 1014.5 1014.5 0.0
28/06:00am 6.9 5.1 3.5 79 1.4 NNW 2 6 1 3 1014.2 1014.2 0.0
28/05:30am 7.3 4.8 3.9 79 1.5 W 6 9 3 5 1014.0 1014.0 0.0
28/05:00am 7.7 6.4 4.3 79 1.5 CALM 0 0 0 0 1013.8 1013.8 0.0
28/04:30am 7.4 4.9 3.5 76 1.7 W 6 9 3 5 1013.8 1013.8 0.0
28/04:00am 8.4 5.9 4.0 74 1.9 W 6 7 3 4 1013.7 1013.7 0.0
28/03:30am 6.9 4.7 3.3 78 1.5 W 4 7 2 4 1013.7 1013.7 0.0
28/03:00am 8.3 7.0 4.1 75 1.8 CALM 0 0 0 0 1013.4 1013.4 0.0
28/02:30am 8.1 6.8 3.9 75 1.8 CALM 0 0 0 0 1013.4 1013.4 0.0
28/02:00am 7.8 6.4 3.5 74 1.8 CALM 0 0 0 0 1013.3 1013.3 0.0
28/01:30am 8.4 6.5 3.1 69 2.3 SSW 2 6 1 3 1013.4 1013.4 0.0
28/01:00am 9.3 7.0 2.9 64 2.7 SSW 4 7 2 4 1013.5 1013.5 0.0
28/12:30am 9.9 8.4 3.2 63 2.9 CALM 0 0 0 0 1013.5 1013.5 0.0
28/12:00am 8.9 7.3 2.7 65 2.6 CALM 0 0 0 0 1013.6 1013.6 0.0
 
Date/Time
EST
Temp
°C
App
Temp
°C
Dew
Point
°C
Rel
Hum
%
Delta-T
°C
Wind Press
QNH
hPa
Press
MSL
hPa
Rain since
9am
mm
Dir  Spd
km/h
Gust
km/h
Spd
kts
Gust
kts
27/11:30pm 9.9 6.7 3.2 63 2.9 SSW 9 9 5 5 1013.5 1013.5 0.0
27/11:00pm 11.7 8.4 2.2 52 4.1 WSW 9 11 5 6 1013.4 1013.4 0.0
27/10:30pm 12.9 8.4 2.2 48 4.6 WSW 15 19 8 10 1013.1 1013.1 0.0
27/10:00pm 12.9 8.8 2.5 49 4.5 SW 13 17 7 9 1013.2 1013.2 0.0
27/09:30pm 13.4 10.0 2.0 46 5.0 WSW 9 15 5 8 1013.3 1013.3 0.0
27/09:00pm 13.9 9.4 2.2 45 5.1 SW 15 24 8 13 1012.9 1012.9 0.0
27/08:30pm 13.9 9.8 2.2 45 5.1 WSW 13 19 7 10 1012.9 1012.9 0.0
27/08:00pm 14.5 9.9 1.8 42 5.5 WSW 15 20 8 11 1012.7 1012.7 0.0
27/07:30pm 15.0 10.5 1.9 41 5.8 WSW 15 20 8 11 1012.2 1012.2 0.0
27/07:00pm 15.6 10.0 1.4 38 6.2 WSW 20 28 11 15 1011.8 1011.8 0.0
27/06:30pm 16.0 10.4 1.0 36 6.5 WSW 20 32 11 17 1011.4 1011.4 0.0
27/06:00pm 16.4 10.7 0.5 34 6.9 WSW 20 39 11 21 1010.9 1010.9 0.0
27/05:30pm 17.2 10.0 0.8 33 7.2 WSW 28 43 15 23 1010.4 1010.4 0.0
27/05:00pm 17.8 9.2 0.0 30 7.7 WSW 35 54 19 29 1009.8 1009.8 0.0
27/04:36pm 18.3 10.0 -0.5 28 8.1 SW 33 54 18 29 1009.5 1009.5 0.0
27/04:30pm 18.7 10.7 0.3 29 8.1 SW 32 46 17 25 1009.3 1009.3 0.0
27/04:01pm 19.3 11.1 0.4 28 8.4 SW 33 52 18 28 1008.7 1008.7 0.0
27/04:00pm 19.3 10.7 0.4 28 8.4 SW 35 52 19 28 1008.7 1008.7 0.0
27/03:30pm 20.0 11.3 -0.6 25 9.0 SW 35 59 19 32 1008.0 1008.0 0.0
27/03:05pm 20.6 12.2 -0.7 24 9.3 SW 33 52 18 28 1007.4 1007.4 0.0
27/03:00pm 20.6 12.0 -0.1 25 9.2 SW 35 52 19 28 1007.5 1007.5 0.0
27/02:32pm 21.0 12.9 0.8 26 9.1 SW 33 52 18 28 1007.0 1007.0 0.0

Other Formats:

Comma delimited format used in spreadsheet applications
http://www.bom.gov.au/fwo/IDN60801/IDN60801.94765.axf

JavaScript Object Notation format (JSON) in row-major order
http://www.bom.gov.au/fwo/IDN60801/IDN60801.94765.json